Погода в Скале

Греция     38°04′26″N   20°47′50″E
темп.,
°C
ветер,
м/с
пор.,
м/с
влажн.,
%
обл.,
%
осадки,
мм/ч
давл.,
гПа
погр.,
м
17 апреля, сб
сб1700:00+16св91079100 0.0 1009364
03:00+15св111279100 0.0 1008420
06:00+15св111275100 0.0 1007437
09:00+15св101074100 0.0 1007377
12:00+16св997098 0.0 1008321
15:00+19св786588 0.0 1006117
18:00+18в44720 0.0 100689
21:00+17юз45818 0.0 1008122
18 апреля, вс
вс1800:00+17ю61087100 0.0 1010391
03:00+17юз348997 0.4 1010171
06:00+16юз229064 0.1 101189
09:00+15з6687100 0.3 1014436
12:00+16з4480100 0.0 1015443
15:00+16з2372100 0.1 1015386
18:00+16зюз3368100 0.0 1014311
21:00+15з7673100 0.0 1015385
19 апреля, пн
пн1900:00+15з66721 0.0 1015451
03:00+15з55775 0.0 1014567
06:00+14зюз34781 0.4 1014553
09:00+15з56700 0.8 1014790
12:00+15з986676 0.4 10141201
15:00+15з99681 0.5 10141056
18:00+15з89641 0.1 10141314
21:00+14зсз78681 0.6 10151022
20 апреля, вт
вт2000:00+14з1010689 1.2 10151247
03:00+14сз89680 1.8 10141019
06:00+14сз78695 0.0 1015880
09:00+14сз45671 0.1 1017694
12:00+15з556637 0.0 1018800
15:00+15з666897 0.1 1019838
18:00+15з666641 0.0 1018821
21:00+15з556614 0.0 1018773
21 апреля, ср
ср2100:00+15з34661 0.0 1019766
03:00+14ссв216825 0.0 1019209
06:00+14юз1269100 0.0 1018277
09:00+15юв1170100 0.0 1019328
12:00+15юз2167100 0.0 1020432
15:00+16юз2264100 0.0 1019425
18:00+16юз2266100 0.0 1018275
21:00+16зюз5567100 0.1 1020415